Key West, FL

6:45 AM EDT on July 26, 2017 (GMT -0400)
Key West International

Weather History for KEYW - June, 2013

Change the Weather History Date:

Wednesday, June 26, 2013

  Actual Average Record
Temperature  
Mean Temperature 83 °F 84 °F  
Max Temperature 86 °F 88 °F 93 °F (1952)
Min Temperature 80 °F 79 °F 69 °F (1903)
Degree Days  
Heating Degree Days 0 0  
Month to date heating degree days 0 0  
Since 1 June heating degree days 0 0  
Since 1 July heating degree days 28 73  
Cooling Degree Days 18 19  
Month to date cooling degree days 478 474  
Year to date cooling degree days 2107 1904  
Since 1 June cooling degree days 478 474  
Growing Degree Days 33 (Base 50)    
Moisture  
Dew Point 75 °F    
Average Humidity 75    
Maximum Humidity 80    
Minimum Humidity 70    
Precipitation  
Precipitation 0.76 in 0.14 in 1.43 in (2003)
Month to date precipitation 7.99 3.57  
Year to date precipitation 22.78 14.20  
Snow  
Snow 0.00 in - - ()
Month to date snowfall 0.0  
Since 1 June snowfall 0.0  
Since 1 July snowfall 0.0  
Snow Depth 0.00 in    
Sea Level Pressure  
Sea Level Pressure 30.03 in    
Wind  
Wind Speed 10 mph (ESE)    
Max Wind Speed 24 mph    
Max Gust Speed 29 mph    
Visibility 9 miles    
Events Rain , Thunderstorm    
T = Trace of Precipitation, MM = Missing Value Source: NWS Daily Summary

Daily Weather History Graph

Daily Weather History Graph

Search for Another Location

Airport or City:

Trip Planner

Search our weather history database for the weather conditions in past years. The results will help you decide how hot, cold, wet, or windy it might be!

Date:

Astronomy

Jun. 26, 2013 Rise Set
Actual Time 6:40 AM EDT 8:19 PM EDT
Civil Twilight 6:14 AM EDT 8:45 PM EDT
Nautical Twilight 5:43 AM EDT 9:15 PM EDT
Astronomical Twilight 5:11 AM EDT 9:48 PM EDT
Moon 11:09 PM EDT 10:06 AM EDT
Length of Visible Light 14h 30m
Length of Day
13h 39m
Waning Gibbous, 85% of the Moon is Illuminated
Jun 26
Waning Gibbous
Jun 30
Last Quarter
Jul 8
New
Jul 15
First Quarter
Jul 22
Full

Hourly Weather History & Observations

Time (EDT) Temp. Heat Index Dew Point Humidity Pressure Visibility Wind Dir Wind Speed Gust Speed Precip Events Conditions
12:07 AM 84.2 °F 92.3 °F 75.2 °F 74% 30.06 in 10.0 mi SE 16.1 mph - N/A   Scattered Clouds
12:53 AM 84.0 °F 92.6 °F 75.9 °F 76% 30.04 in 10.0 mi SE 11.5 mph - N/A   Partly Cloudy
1:53 AM 82.9 °F 90.8 °F 75.9 °F 79% 30.03 in 10.0 mi SE 12.7 mph - 0.13 in   Mostly Cloudy
2:24 AM 80.6 °F 86.2 °F 75.2 °F 84% 30.02 in 8.0 mi SE 8.1 mph - 0.02 in Rain Light Rain
2:53 AM 82.9 °F 90.8 °F 75.9 °F 79% 30.01 in 10.0 mi SE 13.8 mph - 0.02 in   Scattered Clouds
3:50 AM 82.4 °F 89.5 °F 75.2 °F 79% 30.00 in 10.0 mi ESE 12.7 mph - N/A   Mostly Cloudy
3:53 AM 82.9 °F 90.8 °F 75.9 °F 79% 30.00 in 10.0 mi ESE 12.7 mph - N/A   Mostly Cloudy
4:14 AM 80.6 °F 86.2 °F 75.2 °F 84% 30.01 in 1.8 mi SE 10.4 mph 27.6 mph 0.07 in Rain Heavy Rain
4:27 AM 80.6 °F 86.2 °F 75.2 °F 84% 30.01 in 2.5 mi South 12.7 mph 24.2 mph 0.40 in Rain , Thunderstorm Heavy Thunderstorms and Rain
4:35 AM 80.6 °F 86.2 °F 75.2 °F 84% 30.01 in 4.0 mi SSE 5.8 mph 16.1 mph 0.53 in Rain , Thunderstorm Light Thunderstorms and Rain
4:53 AM 82.0 °F 89.4 °F 75.9 °F 82% 30.01 in 10.0 mi SE 9.2 mph - 0.54 in Thunderstorm Thunderstorm
5:13 AM 80.6 °F 86.2 °F 75.2 °F 84% 30.01 in 10.0 mi ESE 12.7 mph - N/A   Scattered Clouds
5:21 AM 80.6 °F 85.4 °F 73.4 °F 79% 30.02 in 8.0 mi ESE 11.5 mph - 0.00 in Rain , Thunderstorm Light Rain
5:39 AM 80.6 °F 86.2 °F 75.2 °F 84% 30.01 in 10.0 mi ESE 13.8 mph - 0.00 in Rain , Thunderstorm Light Rain
5:53 AM 81.0 °F 86.7 °F 75.0 °F 82% 30.01 in 10.0 mi East 10.4 mph - 0.00 in Thunderstorm Partly Cloudy
6:00 AM 80.6 °F 86.2 °F 75.2 °F 84% 30.01 in 10.0 mi ESE 5.8 mph - N/A   Clear
6:53 AM 82.0 °F 88.6 °F 75.0 °F 79% 30.01 in 10.0 mi SE 6.9 mph - N/A   Clear
7:53 AM 82.9 °F 90.2 °F 75.0 °F 77% 30.01 in 9.0 mi SE 9.2 mph - N/A   Scattered Clouds
8:53 AM 84.0 °F 91.9 °F 75.0 °F 74% 30.04 in 10.0 mi SE 12.7 mph - N/A   Scattered Clouds
9:53 AM 84.9 °F 94.1 °F 75.9 °F 74% 30.04 in 10.0 mi SE 13.8 mph - N/A   Mostly Cloudy
10:21 AM 84.2 °F 92.3 °F 75.2 °F 74% 30.04 in 7.0 mi SE 15.0 mph - 0.00 in Rain Light Rain
10:43 AM 80.6 °F 85.4 °F 73.4 °F 79% 30.05 in 2.5 mi East 17.3 mph 28.8 mph 0.00 in Rain Heavy Rain
10:51 AM 80.6 °F 86.2 °F 75.2 °F 84% 30.05 in 3.0 mi East 12.7 mph - 0.07 in Rain Light Rain
10:52 AM 81.0 °F 86.7 °F 75.0 °F 82% 30.05 in 4.0 mi ESE 12.7 mph - 0.07 in Rain Light Rain
11:53 AM 84.0 °F 92.6 °F 75.9 °F 76% 30.07 in 9.0 mi SSE 8.1 mph - 0.00 in   Mostly Cloudy
12:53 PM 82.9 °F 90.8 °F 75.9 °F 79% 30.08 in 9.0 mi East 5.8 mph - 0.00 in   Mostly Cloudy
1:53 PM 84.0 °F 91.9 °F 75.0 °F 74% 30.07 in 10.0 mi SE 5.8 mph - 0.00 in   Clear
2:53 PM 84.9 °F 95.3 °F 77.0 °F 77% 30.04 in 10.0 mi ESE 11.5 mph - N/A   Clear
3:53 PM 84.9 °F 95.3 °F 77.0 °F 77% 30.02 in 10.0 mi SE 11.5 mph 20.7 mph N/A   Scattered Clouds
4:53 PM 84.9 °F 93.3 °F 75.0 °F 72% 30.02 in 10.0 mi ESE 10.4 mph - N/A   Clear
5:53 PM 84.9 °F 93.3 °F 75.0 °F 72% 30.02 in 10.0 mi ESE 6.9 mph - N/A   Clear
6:53 PM 84.0 °F 91.9 °F 75.0 °F 74% 30.02 in 10.0 mi ESE 6.9 mph - N/A   Clear
7:53 PM 84.0 °F 91.9 °F 75.0 °F 74% 30.04 in 10.0 mi East 3.5 mph - N/A   Clear
8:53 PM 82.9 °F 90.8 °F 75.9 °F 79% 30.04 in 10.0 mi ENE 5.8 mph - 0.00 in Rain Light Rain
9:53 PM 82.9 °F 90.2 °F 75.0 °F 77% 30.05 in 10.0 mi East 8.1 mph - 0.00 in   Partly Cloudy
10:53 PM 84.0 °F 91.2 °F 73.9 °F 72% 30.05 in 10.0 mi ESE 9.2 mph - N/A   Clear
11:53 PM 82.9 °F 89.4 °F 73.9 °F 74% 30.05 in 10.0 mi ESE 10.4 mph - N/A   Clear